Temp
18 17 19 19 18 17 18 19 18 21 20 19 18 18 18 18 18 17 16 16 15 15 13 12 11 10 9 8 7 6 6 6 5 5 5 4 4 3 3 3 3 2 3 3
12 16 17 17 18 18 18 19 19 19 20 21 20 19 19 18 18 17 16 16 15 14 13 12 11 10 9 8 7 6 6 6 5 5 5 4 3 3 3 3 3 3 3 3
15 17 16 15 17 18 18 19 20 19 21 20 20 19 19 18 18 17 17 16 15 14 13 12 10 9 9 8 7 6 6 5 5 5 4 3 4 3 3 3 3 3 3 3
12 16 13 18 18 20 19 19 20 20 21 21 20 20 20 19 18 18 17 17 16 14 12 11 10 9 9 8 7 7 6 6 5 5 4 3 3 2 2 2 3 3 3 3
12 14 17 17 16 17 18 19 20 20 20 20 20 20 19 19 19 18 18 16 15 14 12 11 10 9 8 8 8 7 7 6 5 5 4 4 3 2 2 3 3 3 3 3
11 14 15 20 18 19 19 18 21 20 20 19 19 18 20 19 19 18 17 16 15 13 12 11 10 9 9 9 8 8 6 5 5 5 4 4 3 3 3 3 3 3 3 2
13 15 18 18 16 17 17 19 18 19 20 20 19 20 22 20 18 18 16 15 14 13 12 11 9 9 9 8 8 7 5 5 5 4 4 4 3 3 3 3 3 2 3 2
13 13 15 17 16 17 18 16 17 17 18 19 19 19 19 18 18 17 15 14 13 12 11 10 9 8 9 8 7 5 5 4 4 4 4 3 3 3 3 3 2 2 2 1
15 16 17 17 18 17 17 18 17 17 17 17 17 18 18 17 17 16 15 13 12 12 11 9 8 8 8 8 6 5 5 4 4 3 3 3 3 2 2 2 1 0 -2 -2
14 16 16 16 17 17 16 17 18 17 17 16 16 17 17 17 16 16 15 14 12 12 10 9 8 8 8 6 5 5 5 5 4 3 2 2 1 1 -1 -2 -2 -2 -2 -1
16 15 15 15 16 17 17 17 17 17 17 16 16 16 17 17 16 16 15 13 12 11 10 9 8 7 7 6 5 5 5 4 4 2 2 1 1 -0 -0 -1 -2 -2 -2 -2
15 17 17 17 17 17 17 17 17 17 16 16 17 17 17 16 15 15 14 12 11 11 10 9 8 7 6 5 5 5 5 4 3 1 1 1 1 0 -0 -1 -2 -2 -2 -2
16 18 17 17 17 17 17 17 17 17 17 17 16 16 15 16 15 14 13 12 11 11 10 9 8 7 6 5 4 4 5 4 3 1 1 1 1 1 1 -0 -1 -1 -2 -2
15 15 15 15 16 16 16 17 15 16 16 15 15 15 14 15 13 13 12 11 11 10 10 9 8 7 6 5 4 4 4 2 2 2 2 1 1 0 0 -0 -0 -0 -0 -1
14 14 15 17 17 17 16 16 15 15 15 14 13 13 13 13 12 12 12 11 10 10 9 8 7 7 5 4 4 4 3 3 2 1 1 0 -0 0 -0 -0 -0 -0 0 -0
14 14 14 13 16 17 16 15 15 16 15 14 12 12 12 12 11 11 11 10 9 9 9 8 7 7 4 3 3 3 3 1 0 0 1 0 0 0 0 -0 -0 -0 -0 -1
13 13 13 13 14 15 15 16 15 16 15 13 12 12 11 11 11 11 10 9 9 9 8 7 6 6 3 3 3 3 2 1 -1 -1 0 0 -0 -0 -0 -0 -1 -2 -2 -2
14 14 14 14 14 14 15 15 14 14 14 13 12 11 10 11 11 10 9 8 8 8 7 6 5 3 3 2 2 2 1 0 -0 -0 -1 -1 -1 -2 -1 -1 -2 -3 -2 -2
14 14 14 14 14 14 15 15 13 13 12 11 10 9 8 8 9 7 7 6 5 4 4 5 5 4 3 2 1 0 0 -0 -0 -0 -1 -3 -3 -2 -2 -2 -3 -3 -2 -2
13 13 13 13 13 12 13 13 11 10 10 9 8 7 6 5 6 5 4 3 5 6 5 4 4 2 1 2 1 0 -0 -0 -1 -1 -2 -3 -3 -3 -3 -3 -3 -2 -3 -3
12 13 12 11 9 10 11 11 9 7 8 7 6 5 4 4 4 4 3 5 4 5 5 5 2 2 1 -0 0 -0 -1 -2 -2 -2 -2 -3 -4 -4 -4 -4 -3 -3 -3 -3
13 12 9 6 5 6 7 8 8 8 6 5 4 4 4 3 1 3 5 7 3 3 3 2 1 1 1 0 0 -1 -2 -2 -2 -2 -3 -3 -4 -4 -4 -4 -4 -4 -3 -4
12 13 12 9 5 8 6 7 8 7 4 4 3 3 4 5 3 4 5 5 2 3 3 2 1 1 1 -0 -1 -2 -3 -3 -4 -4 -4 -4 -5 -5 -5 -5 -5 -4 -4 -4
11 11 11 10 8 9 8 6 5 5 6 4 3 4 4 4 3 4 5 2 1 2 2 1 1 1 -0 -2 -2 -3 -3 -4 -4 -5 -4 -5 -5 -5 -6 -6 -6 -5 -5 -4
10 10 9 9 9 10 9 9 6 5 4 5 3 2 4 4 3 3 1 1 2 1 1 1 1 0 -1 -2 -3 -3 -4 -4 -5 -5 -5 -5 -5 -5 -6 -6 -6 -6 -5 -5
9 10 10 9 10 10 10 8 8 6 6 4 3 3 3 3 2 1 0 0 0 1 1 -0 -0 -1 -2 -3 -3 -3 -4 -4 -5 -5 -5 -6 -6 -6 -6 -6 -6 -6 -5 -5
7 7 7 7 7 7 7 7 7 6 5 4 3 1 0 0 0 0 -1 -1 -1 -1 -0 -1 -1 -2 -3 -3 -4 -4 -5 -5 -5 -5 -6 -6 -6 -6 -6 -6 -6 -6 -6 -6
Height
778 779 776 778 788 795 795 790 795 781 788 792 798 802 808 815 824 830 838 845 850 855 861 865 869 871 873 874 875 875 874 873 872 869 867 864 862 859 855 853 851 848 845 841
799 784 783 786 783 786 786 785 788 788 787 780 790 799 807 813 819 826 833 840 846 852 858 862 866 869 871 873 873 873 873 872 870 868 866 864 862 859 856 854 851 848 845 841
786 782 787 794 778 778 778 778 778 785 775 782 787 795 799 806 813 820 826 833 841 848 854 859 863 866 869 871 872 872 871 870 869 868 865 863 861 859 856 853 850 847 843 839
797 785 797 762 765 762 769 769 769 769 767 772 778 784 792 799 807 814 820 828 836 844 850 855 860 863 866 868 869 869 869 868 867 866 864 862 861 858 855 852 849 845 841 837
793 787 766 766 769 766 767 762 759 762 766 771 775 780 787 792 799 807 815 823 831 839 846 852 856 860 863 865 866 866 866 866 865 864 862 861 858 855 853 850 846 842 838 834
795 779 773 742 752 756 760 763 744 751 758 767 772 779 771 782 792 802 811 819 827 835 842 848 853 857 860 861 862 863 864 864 863 862 861 859 857 854 851 848 844 840 836 832
777 769 751 750 757 758 766 753 751 750 751 757 761 760 762 776 788 797 807 816 825 832 837 843 849 854 857 859 859 860 861 861 861 860 859 857 855 852 849 846 842 838 833 829
773 773 764 749 761 755 747 753 752 755 754 754 760 764 768 774 783 793 803 814 821 827 833 839 845 849 852 854 857 858 859 859 859 858 857 855 853 850 847 843 840 835 830 827
752 748 743 745 743 751 751 749 753 755 756 756 760 763 770 774 781 789 798 808 816 823 830 836 841 845 848 850 853 855 856 856 856 855 854 852 850 847 844 841 838 834 830 825
750 741 743 746 747 749 752 752 752 754 756 758 761 763 768 772 778 786 793 802 811 819 826 832 837 841 844 847 850 852 853 853 853 853 851 849 847 844 842 840 837 833 828 822
737 742 745 746 744 744 749 750 752 753 754 756 759 763 766 770 775 781 789 799 807 813 820 827 833 837 840 843 846 848 849 850 850 849 848 846 843 841 838 836 834 830 825 820
731 731 732 733 735 741 744 745 747 750 752 754 756 759 763 769 773 779 786 795 803 809 816 822 828 833 837 840 843 845 846 847 846 846 845 842 840 837 834 831 828 826 823 818
727 727 731 732 735 737 740 741 744 746 747 749 754 756 761 765 771 777 784 792 797 803 810 817 823 828 833 836 839 841 842 843 843 842 841 839 837 834 829 826 824 820 817 813
730 731 733 735 734 736 739 740 743 745 747 749 752 755 759 763 770 776 781 787 794 801 807 813 819 824 829 832 835 837 838 839 840 839 837 835 833 830 828 824 819 816 813 809
730 731 729 726 729 731 735 738 740 742 744 748 751 754 757 761 766 771 778 785 792 798 804 810 815 820 824 828 831 833 835 836 836 835 834 832 830 827 824 821 817 812 807 803
725 726 728 730 725 727 732 736 737 737 741 745 749 751 754 759 764 769 775 781 787 792 799 805 811 816 820 824 827 830 831 831 831 831 830 828 826 823 820 817 813 809 804 800
721 721 723 725 727 726 727 729 731 732 735 741 743 747 752 757 762 767 772 778 783 789 795 801 807 812 815 820 823 825 827 828 827 827 826 825 823 820 817 814 810 806 803 798
716 716 716 718 721 722 723 725 727 729 732 733 738 744 749 752 755 762 768 775 782 787 792 797 802 806 811 815 819 821 822 823 823 823 823 821 820 817 814 811 808 803 799 795
710 710 712 713 715 716 717 719 722 724 727 731 734 739 742 746 751 757 763 770 775 781 786 791 796 802 806 810 814 817 819 819 819 819 818 817 816 814 811 808 805 801 796 792
701 703 705 706 708 710 712 714 716 719 722 726 730 735 740 745 749 754 759 763 765 772 779 786 792 798 803 806 810 814 815 816 816 815 815 814 812 810 808 805 802 797 793 789
690 693 695 696 698 701 704 706 709 713 716 720 724 728 731 736 744 749 758 764 767 771 776 781 788 795 800 803 807 810 811 811 812 812 811 811 809 807 804 801 798 794 790 787
681 682 686 689 692 694 697 700 704 708 712 716 720 724 729 736 741 747 751 755 761 766 772 778 785 791 796 799 803 805 807 808 808 809 808 806 805 803 800 797 795 791 788 784
671 673 678 682 685 688 693 695 698 701 705 709 714 717 722 727 733 739 746 751 755 762 769 775 781 786 791 796 799 801 803 803 804 805 804 803 801 799 797 794 791 788 785 781
664 666 670 675 681 683 686 690 694 696 700 704 709 713 718 724 731 736 741 745 751 758 764 770 776 783 788 792 795 797 798 799 800 800 799 799 797 795 793 790 787 785 782 778
661 665 668 670 672 673 677 682 688 694 699 703 707 712 716 720 724 730 736 740 747 755 762 769 774 780 785 788 790 792 794 795 795 796 795 795 793 791 789 787 784 781 779 775
655 658 660 662 663 667 673 679 683 689 694 701 706 710 714 719 723 728 734 740 747 753 760 767 772 777 781 785 787 788 789 791 791 791 791 791 789 787 785 783 780 777 775 771
657 659 660 662 666 668 672 675 679 685 690 696 702 708 713 717 722 726 732 738 745 752 758 765 770 774 778 780 783 784 785 786 787 787 787 786 785 782 781 779 776 773 770 767
Wind_Speed
3 5 10 14 21 22 21 15 10 5 11 15 19 21 20 20 19 18 16 16 14 12 14 13 11 9 8 5 2 1 2 4 5 6 8 10 12 13 14 15 15 15 16 16
4 7 7 8 13 20 21 19 16 7 8 5 17 17 19 20 20 18 18 17 16 16 16 15 14 12 10 7 4 2 2 3 4 6 7 9 11 13 14 15 15 16 16 17
7 9 7 6 17 18 19 17 20 16 15 12 17 20 22 22 21 20 19 19 17 18 18 16 15 13 11 8 6 3 1 1 2 5 7 9 10 13 14 14 15 16 17 17
3 10 7 3 2 18 20 18 20 15 11 15 18 22 21 21 22 20 20 19 19 20 19 17 16 14 11 9 6 4 3 1 2 4 7 9 10 12 13 13 16 17 18 19
6 10 1 9 7 10 15 17 22 22 15 14 14 15 20 22 22 21 20 24 24 23 21 19 18 15 13 10 7 5 4 2 2 4 6 8 10 12 12 14 16 17 18 19
4 6 8 3 9 9 9 8 11 20 19 18 16 14 14 23 22 22 25 25 24 23 21 20 19 17 14 10 7 6 5 3 3 5 6 8 10 11 12 13 15 17 18 17
6 7 7 6 10 12 8 2 5 7 15 20 21 14 10 22 22 27 25 26 25 25 23 21 19 17 13 10 8 6 5 3 4 5 7 9 11 12 13 14 16 17 18 17
5 6 10 11 12 8 5 5 4 2 6 17 18 15 9 18 21 25 26 27 27 25 22 22 20 18 14 11 8 7 5 3 4 6 8 10 12 13 14 15 16 17 18 19
11 9 3 17 5 8 3 6 4 2 1 9 15 17 14 14 19 25 29 30 28 25 23 21 20 17 14 10 10 7 6 4 5 7 8 10 12 13 13 14 15 16 17 19
6 10 10 12 11 8 9 5 3 2 1 7 13 16 17 14 17 23 29 29 28 25 23 22 20 17 13 13 11 9 7 6 5 6 8 8 8 9 10 11 14 15 17 18
10 3 4 8 14 14 11 10 8 7 6 8 10 15 16 15 17 25 29 28 28 26 24 23 21 18 15 14 12 10 7 6 6 6 7 8 8 10 10 11 12 17 18 21
7 10 9 5 14 13 12 11 10 10 10 10 12 13 16 14 22 26 28 28 27 25 23 23 22 19 17 14 12 10 8 6 6 6 8 9 11 13 13 15 15 16 19 19
10 10 13 7 6 11 11 8 7 10 11 10 13 14 20 17 23 26 27 27 28 28 25 23 21 19 17 15 12 10 7 6 6 7 8 9 11 14 19 17 17 18 18 20
11 4 7 10 8 11 10 6 4 7 8 10 11 14 18 19 21 26 28 30 27 25 24 22 21 19 17 15 12 10 7 9 8 8 9 10 12 13 14 16 19 19 18 20
11 13 14 10 14 9 9 7 7 7 8 9 13 15 20 21 22 27 27 26 25 24 22 21 20 18 17 15 13 10 8 8 8 8 9 10 12 12 14 15 17 19 20 20
12 12 15 13 13 13 11 9 10 9 9 10 13 17 21 22 23 25 26 27 27 24 24 22 20 18 17 15 12 10 9 11 10 8 8 10 11 12 14 14 16 17 20 21
14 14 13 13 13 15 13 12 12 11 9 12 17 18 19 20 20 23 25 27 25 23 23 22 20 18 17 15 13 10 9 8 8 8 9 10 12 13 14 14 16 17 20 21
17 16 16 14 13 15 15 14 14 15 12 19 17 18 19 21 20 24 25 24 21 20 21 21 21 20 18 14 12 10 8 7 6 8 9 10 11 11 12 14 15 17 20 21
21 19 18 16 16 14 14 14 16 16 15 14 18 20 24 25 24 25 28 29 29 26 27 25 24 20 17 17 13 9 8 7 7 8 8 9 9 11 13 14 15 17 20 20
26 28 26 24 25 22 15 17 15 13 15 17 19 18 18 22 23 29 33 31 34 25 31 27 24 18 15 16 14 8 8 7 7 7 7 8 10 11 13 14 15 17 22 20
26 23 21 18 15 23 25 23 21 17 22 22 23 21 25 25 28 30 22 19 20 23 27 29 23 18 16 14 13 9 7 6 6 6 8 9 10 11 13 14 16 19 21 21
21 18 17 13 11 14 24 23 20 19 17 21 22 19 20 19 21 23 24 22 22 28 28 26 20 20 17 17 11 9 7 6 6 7 8 9 10 12 14 15 16 20 21 22
19 20 20 17 13 17 17 18 22 21 21 23 25 24 24 21 23 23 13 23 26 33 25 22 22 25 19 15 10 9 8 7 6 7 7 8 10 11 13 14 16 19 21 23
18 22 21 22 16 19 13 13 17 20 24 22 21 26 23 20 18 19 15 26 28 34 27 26 26 23 19 12 11 9 7 6 7 6 7 9 10 12 13 14 15 17 20 23
14 16 17 16 13 10 17 19 17 14 14 13 13 17 18 17 16 21 22 31 37 34 27 26 25 22 18 13 10 8 7 7 6 6 8 9 11 12 13 13 15 16 20 22
11 9 12 14 10 11 12 15 14 16 15 13 13 17 18 18 18 24 25 30 34 27 27 28 24 20 16 11 9 8 7 6 6 7 8 10 11 12 13 14 17 18 20 22
4 4 7 7 7 9 12 14 14 15 17 17 17 18 19 20 24 25 30 32 30 28 28 25 21 17 13 11 9 7 6 7 8 9 10 11 12 13 14 16 18 19 20 20
Wind_Direction
153 149 186 201 193 195 206 211 201 209 210 181 182 181 181 178 178 178 181 180 177 179 178 180 183 188 191 187 190 318 345 352 348 346 350 349 349 349 348 344 340 340 338 336
195 164 177 183 204 202 211 213 228 209 219 190 183 184 181 183 183 183 184 184 182 181 181 184 186 190 189 189 191 212 320 340 350 360 356 354 352 350 343 338 335 333 330 329
201 182 184 236 209 202 211 220 218 223 225 171 183 190 189 187 188 189 188 186 184 185 184 186 188 188 188 186 185 201 236 338 355 357 357 355 349 346 341 335 332 330 329 327
153 166 215 214 232 204 210 214 213 227 212 186 195 196 193 193 190 192 189 186 185 184 183 185 184 185 182 183 189 199 207 219 327 343 346 343 338 338 335 333 331 329 326 324
164 206 292 196 195 180 191 232 224 223 212 198 198 197 201 198 196 195 189 187 185 183 180 179 181 182 184 187 193 197 204 232 315 325 328 332 334 335 333 330 329 327 324 322
175 196 217 214 158 181 180 258 206 210 211 196 180 198 201 192 194 194 191 185 179 177 175 177 182 183 188 192 196 197 200 232 291 308 315 321 323 324 323 325 322 323 320 319
183 218 238 137 156 163 188 157 133 207 207 196 200 207 193 180 190 191 183 180 175 173 176 179 180 183 191 195 201 193 201 236 286 301 307 308 311 314 316 320 320 321 320 321
194 202 232 151 146 194 99 116 125 170 215 210 207 215 159 174 180 180 176 175 173 172 175 178 180 183 190 197 190 190 207 242 288 304 306 307 308 310 311 314 316 319 321 321
198 201 97 179 187 190 159 139 137 109 222 216 201 200 185 175 177 175 174 173 175 174 174 178 182 187 190 187 184 193 209 242 279 296 303 309 310 310 312 313 316 320 317 310
170 206 205 194 200 207 206 225 210 218 187 190 197 196 192 179 176 176 174 174 175 174 177 180 184 187 190 183 185 195 215 241 272 289 302 310 311 311 310 308 311 315 314 313
223 143 171 214 220 221 222 236 241 236 214 191 192 197 196 186 178 177 174 175 177 178 180 182 183 186 185 184 188 202 219 242 268 283 298 307 309 308 304 306 301 307 311 316
219 200 213 201 218 207 215 233 238 234 211 205 200 193 191 187 182 177 175 175 178 180 180 182 185 186 186 189 195 207 223 246 259 278 294 305 313 313 308 303 309 309 305 310
235 218 216 219 167 182 213 228 231 217 220 207 202 197 190 185 183 180 178 178 180 180 181 181 183 186 189 191 197 208 229 251 263 278 286 297 307 310 316 318 313 314 313 319
256 226 216 195 210 204 213 219 209 219 226 219 202 197 190 185 177 180 181 184 180 178 180 181 183 188 190 192 197 209 228 249 262 276 285 293 303 304 308 310 316 319 318 318
251 249 263 247 221 207 200 196 200 214 207 199 195 193 188 184 182 185 183 179 177 177 179 181 185 189 190 191 197 210 226 244 258 276 281 289 297 301 306 308 312 315 319 325
248 246 242 244 241 215 206 208 229 236 210 202 194 194 192 191 187 181 176 173 172 180 183 184 187 188 188 189 196 212 227 242 257 272 283 292 297 301 305 309 313 317 322 327
256 253 239 240 237 238 220 221 221 228 220 204 207 195 187 185 181 178 177 181 183 181 183 184 185 184 184 188 197 208 221 235 249 267 279 291 297 301 306 308 315 318 317 319
248 252 257 242 238 236 238 232 226 230 221 215 204 189 182 181 181 179 182 179 178 176 180 181 179 181 183 188 193 205 217 230 245 264 280 289 293 301 305 311 315 316 317 321
239 240 244 252 250 248 245 233 220 223 222 204 182 182 187 188 183 179 171 174 173 170 181 185 188 187 188 192 190 202 216 229 251 269 276 283 292 300 305 310 316 315 318 320
238 240 240 246 251 242 237 235 216 207 202 193 187 175 180 188 182 177 177 178 189 189 188 183 181 178 180 194 197 204 217 234 255 268 273 282 293 300 303 309 315 315 318 321
234 235 235 231 232 226 222 223 210 193 197 191 180 187 191 187 189 185 172 185 187 187 181 185 177 175 179 186 194 206 216 236 248 266 274 285 295 299 302 305 310 313 323 323
235 229 224 214 206 215 217 212 201 207 201 196 198 189 175 173 178 185 193 190 175 178 178 175 176 179 180 185 186 200 214 228 249 266 274 287 293 299 304 306 307 313 320 321
239 236 234 223 214 219 217 213 218 217 200 195 188 184 183 184 180 174 184 188 177 180 170 170 177 183 185 176 187 197 209 222 243 259 274 285 290 297 302 300 301 308 316 320
248 236 235 233 223 220 211 201 208 207 208 197 197 195 171 166 179 189 187 170 174 168 164 175 177 180 182 184 189 202 212 224 241 261 279 285 288 297 297 299 299 303 310 316
239 227 215 205 205 211 211 200 182 180 178 178 172 183 181 179 169 168 165 169 173 165 170 173 175 179 184 190 196 206 218 230 247 264 275 288 290 293 294 296 297 299 306 316
214 212 204 198 193 191 183 175 178 174 171 166 168 170 171 169 163 158 161 163 159 164 164 169 176 181 188 191 202 215 222 237 253 264 275 284 291 293 293 295 300 300 305 312
164 179 173 159 169 177 179 181 176 176 178 175 165 165 159 153 154 153 151 150 155 160 167 172 177 181 187 193 206 217 234 246 257 263 271 284 286 290 291 293 296 300 300 304